QPF
0.03 0.02 0.01 0.01 0.00 0.02 0.03 0.04 0.04 0.06 0.09 0.07 0.05 0.03 0.02 0.03 0.01 0.00 0.00 0.00 0.00 0.00 0.01 0.03 0.05 0.07 0.08 0.08 0.05 0.05 0.03 0.00 0.01 0.00 0.00 0.00 0.00 0.00 0.00 0.00 0.00 0.00 0.00
0.01 0.00 0.00 0.01 0.01 0.02 0.03 0.03 0.01 0.06 0.05 0.02 0.00 0.00 0.00 0.00 0.00 0.00 0.00 0.00 0.00 0.00 0.04 0.05 0.01 0.02 0.04 0.03 0.03 0.01 0.01 0.00 0.01 0.00 0.00 0.01 0.00 0.00 0.00 0.00 0.00 0.00 0.00
0.00 0.00 0.00 0.00 0.01 0.02 0.02 0.03 0.02 0.00 0.01 0.01 0.00 0.00 0.00 0.00 0.00 0.00 0.00 0.00 0.00 0.00 0.00 0.03 0.01 0.01 0.01 0.01 0.02 0.01 0.01 0.00 0.00 0.00 0.01 0.00 0.00 0.00 0.00 0.00 0.00 0.00 0.00
0.00 0.01 0.01 0.01 0.01 0.01 0.02 0.02 0.03 0.01 0.00 0.00 0.00 0.00 0.00 0.00 0.00 0.00 0.00 0.00 0.00 0.00 0.00 0.00 0.01 0.02 0.03 0.05 0.03 0.03 0.01 0.00 0.00 0.01 0.02 0.01 0.01 0.00 0.00 0.00 0.00 0.00 0.00
0.00 0.00 0.00 0.00 0.00 0.01 0.01 0.01 0.01 0.02 0.01 0.01 0.00 0.01 0.01 0.01 0.00 0.00 0.00 0.00 0.00 0.00 0.01 0.01 0.02 0.01 0.00 0.00 0.01 0.01 0.01 0.00 0.01 0.01 0.01 0.01 0.01 0.00 0.00 0.00 0.01 0.01 0.02
0.00 0.00 0.00 0.00 0.00 0.02 0.02 0.01 0.01 0.01 0.01 0.01 0.01 0.00 0.00 0.00 0.00 0.00 0.01 0.01 0.01 0.01 0.01 0.01 0.01 0.00 0.00 0.00 0.00 0.00 0.00 0.01 0.03 0.03 0.02 0.01 0.00 0.01 0.00 0.00 0.01 0.01 0.01
0.00 0.00 0.00 0.00 0.00 0.00 0.01 0.02 0.02 0.02 0.01 0.01 0.01 0.01 0.01 0.01 0.00 0.00 0.00 0.00 0.00 0.00 0.00 0.00 0.00 0.00 0.00 0.00 0.00 0.00 0.00 0.00 0.00 0.01 0.01 0.01 0.01 0.01 0.01 0.02 0.01 0.02 0.02
0.00 0.00 0.00 0.00 0.00 0.00 0.00 0.00 0.00 0.00 0.00 0.00 0.00 0.00 0.00 0.00 0.00 0.00 0.00 0.00 0.00 0.00 0.00 0.00 0.00 0.00 0.00 0.00 0.00 0.00 0.00 0.00 0.00 0.00 0.00 0.00 0.00 0.00 0.00 0.00 0.01 0.03 0.04
0.00 0.00 0.00 0.00 0.00 0.00 0.00 0.00 0.00 0.00 0.00 0.00 0.00 0.00 0.00 0.00 0.00 0.00 0.00 0.00 0.00 0.00 0.00 0.00 0.00 0.00 0.00 0.00 0.00 0.00 0.00 0.00 0.00 0.00 0.00 0.00 0.00 0.00 0.00 0.00 0.03 0.03 0.02
0.00 0.00 0.00 0.00 0.00 0.00 0.00 0.00 0.00 0.00 0.00 0.00 0.00 0.00 0.00 0.00 0.00 0.00 0.00 0.00 0.00 0.00 0.00 0.00 0.00 0.00 0.00 0.00 0.00 0.00 0.00 0.00 0.00 0.00 0.00 0.00 0.00 0.00 0.00 0.00 0.00 0.01 0.01
0.00 0.00 0.00 0.00 0.00 0.00 0.00 0.01 0.01 0.00 0.00 0.00 0.00 0.00 0.00 0.00 0.00 0.00 0.00 0.00 0.00 0.00 0.00 0.00 0.00 0.00 0.00 0.00 0.00 0.00 0.00 0.00 0.00 0.00 0.00 0.00 0.00 0.00 0.00 0.00 0.00 0.00 0.00
0.00 0.00 0.00 0.00 0.00 0.00 0.01 0.00 0.02 0.02 0.01 0.01 0.01 0.01 0.00 0.01 0.00 0.00 0.00 0.00 0.00 0.00 0.00 0.00 0.00 0.00 0.00 0.00 0.00 0.00 0.00 0.00 0.00 0.00 0.00 0.00 0.00 0.00 0.00 0.00 0.00 0.00 0.00
0.00 0.00 0.00 0.00 0.00 0.00 0.01 0.02 0.02 0.01 0.01 0.01 0.01 0.01 0.01 0.01 0.01 0.00 0.00 0.00 0.00 0.00 0.00 0.00 0.00 0.00 0.00 0.00 0.00 0.00 0.00 0.01 0.02 0.00 0.00 0.00 0.00 0.00 0.01 0.00 0.00 0.00 0.00
0.00 0.01 0.01 0.00 0.02 0.01 0.01 0.02 0.01 0.00 0.00 0.00 0.00 0.01 0.00 0.00 0.00 0.00 0.00 0.00 0.00 0.00 0.00 0.00 0.00 0.00 0.00 0.00 0.00 0.00 0.00 0.00 0.00 0.00 0.00 0.00 0.00 0.00 0.00 0.00 0.00 0.00 0.00
0.01 0.01 0.01 0.00 0.01 0.01 0.01 0.00 0.00 0.00 0.00 0.00 0.00 0.00 0.00 0.00 0.00 0.00 0.00 0.00 0.00 0.00 0.00 0.00 0.00 0.00 0.00 0.00 0.00 0.00 0.00 0.00 0.00 0.00 0.00 0.00 0.00 0.00 0.00 0.00 0.00 0.00 0.00
0.01 0.00 0.00 0.02 0.02 0.03 0.02 0.00 0.00 0.00 0.00 0.00 0.00 0.00 0.00 0.00 0.00 0.00 0.00 0.00 0.00 0.00 0.00 0.00 0.00 0.00 0.00 0.00 0.00 0.00 0.00 0.00 0.00 0.00 0.00 0.00 0.00 0.00 0.00 0.00 0.00 0.00 0.00
0.03 0.03 0.03 0.01 0.00 0.00 0.00 0.00 0.00 0.00 0.00 0.00 0.00 0.00 0.00 0.00 0.00 0.00 0.00 0.00 0.00 0.00 0.00 0.00 0.00 0.00 0.00 0.00 0.00 0.00 0.00 0.00 0.00 0.00 0.00 0.00 0.00 0.00 0.00 0.00 0.00 0.00 0.00
0.03 0.00 0.02 0.00 0.00 0.00 0.00 0.00 0.00 0.00 0.00 0.00 0.00 0.00 0.00 0.00 0.00 0.00 0.00 0.00 0.00 0.00 0.00 0.00 0.00 0.00 0.00 0.00 0.00 0.00 0.00 0.00 0.00 0.00 0.00 0.00 0.00 0.00 0.00 0.00 0.00 0.00 0.00
0.00 0.00 0.00 0.00 0.00 0.00 0.00 0.00 0.00 0.00 0.00 0.00 0.00 0.00 0.00 0.00 0.00 0.00 0.00 0.00 0.00 0.00 0.00 0.00 0.00 0.00 0.00 0.00 0.00 0.00 0.00 0.00 0.00 0.00 0.00 0.00 0.00 0.00 0.00 0.00 0.00 0.00 0.00
0.00 0.00 0.00 0.00 0.00 0.00 0.00 0.00 0.00 0.00 0.00 0.00 0.00 0.00 0.00 0.00 0.00 0.00 0.00 0.00 0.00 0.00 0.00 0.00 0.00 0.00 0.00 0.00 0.00 0.00 0.00 0.00 0.00 0.00 0.00 0.00 0.00 0.00 0.00 0.00 0.00 0.00 0.00
0.00 0.00 0.00 0.00 0.00 0.00 0.00 0.00 0.00 0.00 0.00 0.00 0.00 0.00 0.00 0.00 0.00 0.00 0.00 0.00 0.00 0.00 0.00 0.00 0.00 0.00 0.00 0.00 0.00 0.00 0.00 0.00 0.00 0.00 0.00 0.00 0.00 0.00 0.00 0.00 0.00 0.00 0.00
0.00 0.00 0.00 0.00 0.00 0.00 0.00 0.00 0.00 0.00 0.00 0.00 0.00 0.00 0.00 0.00 0.00 0.00 0.00 0.00 0.00 0.00 0.00 0.00 0.00 0.00 0.00 0.00 0.00 0.00 0.00 0.00 0.00 0.00 0.00 0.00 0.00 0.00 0.00 0.00 0.00 0.00 0.00
0.00 0.00 0.00 0.00 0.00 0.00 0.00 0.00 0.00 0.00 0.00 0.00 0.00 0.00 0.00 0.00 0.00 0.00 0.00 0.00 0.00 0.00 0.00 0.00 0.00 0.00 0.00 0.00 0.00 0.00 0.00 0.00 0.00 0.00 0.00 0.00 0.00 0.00 0.00 0.00 0.00 0.00 0.00
0.00 0.00 0.00 0.00 0.00 0.00 0.00 0.00 0.00 0.00 0.00 0.00 0.00 0.00 0.00 0.00 0.00 0.00 0.00 0.00 0.00 0.00 0.00 0.00 0.00 0.00 0.00 0.00 0.00 0.00 0.00 0.00 0.00 0.00 0.00 0.00 0.00 0.00 0.00 0.00 0.00 0.00 0.00
0.00 0.00 0.00 0.00 0.00 0.00 0.00 0.00 0.00 0.00 0.00 0.00 0.00 0.00 0.00 0.00 0.00 0.00 0.00 0.00 0.00 0.00 0.00 0.00 0.00 0.00 0.00 0.00 0.00 0.00 0.00 0.00 0.00 0.00 0.00 0.00 0.00 0.00 0.00 0.00 0.00 0.00 0.00
0.00 0.00 0.00 0.00 0.00 0.00 0.00 0.00 0.00 0.00 0.00 0.00 0.00 0.00 0.00 0.00 0.00 0.00 0.00 0.00 0.00 0.00 0.00 0.00 0.00 0.00 0.00 0.00 0.00 0.00 0.00 0.00 0.00 0.00 0.00 0.00 0.00 0.00 0.00 0.00 0.00 0.00 0.00
MSLP
1024.86 1024.78 1024.66 1024.67 1024.30 1023.84 1023.63 1023.44 1022.88 1022.34 1021.89 1021.55 1021.30 1021.15 1021.00 1020.89 1020.62 1020.81 1021.02 1021.00 1020.72 1020.50 1020.27 1020.00 1019.70 1019.51 1019.67 1019.70 1019.62 1019.40 1019.16 1018.95 1018.95 1019.36 1020.34 1020.29 1020.24 1020.34 1020.09 1019.80 1019.25 1018.69 1018.30
1025.32 1025.43 1025.20 1024.60 1024.33 1024.05 1023.98 1023.88 1023.74 1023.34 1022.67 1022.00 1021.87 1021.99 1021.93 1021.69 1021.25 1021.05 1020.80 1020.89 1020.66 1020.27 1019.72 1019.41 1019.18 1019.23 1019.45 1019.29 1018.97 1018.92 1019.08 1019.46 1020.23 1020.40 1020.42 1020.16 1020.20 1020.22 1020.06 1019.32 1018.63 1017.93 1017.70
1025.85 1025.50 1025.14 1025.23 1025.28 1024.76 1024.39 1024.14 1023.82 1023.62 1023.17 1022.43 1022.15 1021.77 1021.59 1021.30 1020.95 1020.70 1020.64 1020.47 1020.56 1020.46 1020.09 1019.68 1019.50 1019.50 1019.30 1019.17 1019.47 1019.05 1019.33 1020.22 1020.64 1020.64 1020.25 1020.04 1020.10 1020.07 1019.50 1018.67 1018.01 1017.55 1017.10
1025.73 1025.50 1025.46 1025.70 1025.67 1025.34 1024.68 1024.45 1023.94 1023.45 1023.54 1023.04 1022.15 1021.68 1021.40 1021.41 1021.57 1021.33 1020.83 1020.40 1020.23 1020.05 1020.09 1019.93 1019.75 1019.73 1019.93 1019.98 1019.73 1020.06 1020.25 1020.42 1020.42 1020.24 1019.83 1019.88 1019.87 1019.83 1019.38 1018.09 1017.39 1017.03 1016.63
1025.87 1025.72 1026.06 1026.22 1025.91 1025.44 1025.13 1024.79 1024.36 1023.86 1023.33 1022.61 1022.45 1022.14 1022.10 1022.21 1022.38 1021.97 1021.30 1020.85 1020.61 1020.34 1020.20 1020.07 1020.19 1020.87 1021.05 1020.99 1020.61 1020.65 1020.55 1020.45 1020.30 1020.02 1019.47 1019.05 1018.95 1018.72 1018.34 1017.57 1017.33 1016.84 1016.80
1026.33 1026.17 1026.41 1026.36 1025.86 1025.33 1024.79 1024.48 1024.22 1024.01 1023.41 1023.17 1022.82 1022.91 1022.75 1022.51 1023.07 1022.73 1022.27 1021.48 1021.23 1021.11 1020.84 1020.66 1020.87 1020.98 1021.26 1021.29 1021.13 1021.00 1020.86 1020.34 1019.94 1019.41 1018.74 1018.39 1018.63 1018.15 1018.06 1017.72 1017.23 1016.57 1016.19
1026.53 1026.22 1026.34 1026.13 1026.22 1025.89 1025.52 1025.21 1024.82 1024.46 1023.82 1023.55 1023.26 1023.06 1022.89 1022.83 1023.37 1023.08 1022.52 1022.03 1021.95 1021.85 1021.74 1021.66 1021.77 1021.71 1021.56 1021.45 1021.34 1021.10 1020.89 1020.56 1020.25 1019.38 1018.71 1018.48 1018.29 1018.37 1018.27 1017.76 1017.28 1017.00 1016.32
1027.04 1026.73 1026.48 1026.24 1026.33 1026.15 1025.86 1025.58 1025.30 1024.97 1024.69 1024.44 1024.17 1024.02 1023.84 1023.69 1023.59 1023.28 1022.94 1022.74 1022.65 1022.57 1022.40 1022.26 1022.10 1021.89 1021.86 1021.64 1021.16 1020.42 1020.12 1019.96 1019.89 1019.32 1018.98 1018.90 1018.70 1018.60 1018.41 1018.00 1017.63 1017.19 1016.42
1027.39 1027.05 1026.77 1026.43 1026.06 1026.27 1025.72 1025.54 1025.47 1025.13 1024.83 1024.63 1024.40 1024.27 1024.01 1023.89 1023.91 1023.62 1023.19 1023.14 1023.07 1022.90 1022.66 1022.58 1022.05 1021.86 1022.34 1021.76 1020.81 1020.03 1019.73 1019.60 1020.03 1019.99 1019.91 1019.82 1019.68 1019.57 1019.39 1018.40 1016.89 1016.42 1015.21
1027.66 1027.38 1026.93 1026.68 1026.46 1026.33 1025.78 1025.43 1025.39 1025.00 1024.73 1024.44 1024.38 1024.32 1024.25 1023.76 1024.21 1023.98 1023.27 1023.37 1023.09 1022.91 1022.50 1022.05 1022.53 1022.63 1022.50 1022.03 1021.09 1020.26 1019.74 1019.67 1019.25 1018.85 1018.71 1018.94 1019.27 1018.30 1019.02 1018.71 1017.37 1016.53 1015.67
1027.72 1027.42 1027.04 1026.82 1026.52 1026.20 1025.70 1025.56 1025.28 1025.29 1025.04 1024.72 1024.41 1024.01 1023.75 1023.82 1023.99 1024.05 1023.40 1022.82 1022.66 1021.82 1021.14 1021.37 1022.05 1022.55 1022.45 1022.22 1021.92 1021.16 1021.03 1020.97 1019.43 1018.73 1017.97 1017.60 1017.42 1016.95 1016.59 1016.78 1016.77 1016.61 1015.86
1027.69 1027.41 1027.15 1026.79 1026.35 1025.85 1025.67 1025.46 1025.14 1024.89 1024.43 1024.15 1023.76 1023.01 1023.09 1022.89 1024.08 1024.14 1024.03 1023.65 1022.97 1022.06 1021.65 1021.93 1022.39 1022.66 1022.45 1022.15 1021.87 1021.48 1020.88 1020.33 1018.67 1018.18 1017.23 1016.93 1016.60 1016.20 1016.15 1016.19 1016.31 1016.24 1015.99
1027.56 1027.32 1026.97 1026.61 1026.28 1025.93 1025.74 1025.54 1024.94 1024.71 1024.40 1024.02 1023.85 1023.77 1023.28 1023.20 1023.06 1023.51 1023.68 1023.39 1023.21 1022.40 1022.43 1022.87 1022.43 1022.15 1021.77 1021.62 1021.55 1020.88 1020.11 1019.03 1018.72 1017.63 1017.36 1016.76 1016.48 1016.20 1016.00 1015.69 1015.32 1015.12 1015.02
1027.32 1027.08 1026.90 1026.60 1026.41 1026.16 1026.02 1025.89 1025.70 1025.77 1025.40 1024.97 1024.41 1024.12 1023.48 1023.63 1024.11 1023.88 1023.00 1023.15 1022.97 1022.34 1022.27 1021.93 1021.67 1021.70 1021.44 1020.96 1020.29 1019.90 1019.36 1019.04 1018.59 1017.63 1017.15 1016.90 1016.67 1015.97 1015.72 1015.75 1015.10 1014.58 1013.86
1027.46 1027.17 1026.97 1026.53 1026.28 1026.21 1026.50 1027.07 1026.84 1027.59 1027.54 1026.55 1025.89 1025.50 1025.26 1025.29 1026.13 1026.37 1025.81 1024.87 1024.22 1023.46 1023.00 1021.58 1021.17 1020.91 1020.60 1020.29 1019.97 1019.67 1019.34 1018.98 1018.48 1017.96 1017.29 1016.78 1016.33 1016.09 1015.90 1015.68 1015.21 1014.67 1014.11
1027.58 1027.00 1027.07 1026.64 1026.01 1025.87 1026.27 1027.34 1028.51 1028.21 1028.28 1028.14 1027.95 1027.39 1026.31 1027.34 1026.98 1026.44 1025.81 1025.10 1024.34 1023.66 1022.71 1021.86 1021.51 1021.20 1020.95 1020.66 1020.28 1019.85 1019.58 1019.39 1018.93 1018.32 1017.88 1017.47 1017.00 1016.49 1016.36 1015.78 1015.53 1015.24 1014.69
1027.90 1027.65 1026.67 1026.54 1025.70 1025.40 1025.39 1025.76 1026.20 1028.43 1028.36 1028.02 1028.07 1027.96 1027.85 1027.77 1026.96 1026.40 1025.85 1025.33 1024.21 1023.38 1022.77 1022.31 1022.00 1021.76 1021.54 1021.20 1020.83 1020.45 1020.11 1020.03 1019.55 1018.87 1018.41 1018.04 1017.59 1016.99 1016.56 1016.17 1015.85 1015.78 1015.40
1027.64 1027.53 1026.52 1026.06 1025.90 1025.48 1025.20 1025.30 1025.72 1026.31 1026.74 1026.86 1027.68 1027.26 1027.56 1027.33 1026.89 1026.28 1025.48 1024.56 1023.88 1023.40 1023.07 1022.81 1022.55 1022.34 1022.11 1021.83 1021.56 1021.29 1020.96 1020.60 1020.17 1019.58 1019.07 1018.68 1018.26 1017.64 1017.14 1016.79 1016.42 1016.44 1016.19
1027.00 1026.98 1026.72 1026.19 1025.73 1025.77 1025.30 1025.37 1025.51 1025.94 1026.20 1026.26 1026.39 1026.33 1026.29 1026.69 1026.42 1026.00 1025.33 1024.62 1024.25 1023.92 1023.72 1023.43 1023.26 1022.99 1022.70 1022.38 1022.27 1022.03 1021.73 1021.23 1020.86 1020.20 1019.69 1019.22 1018.84 1018.19 1017.68 1017.39 1016.99 1016.84 1016.64
1027.05 1027.43 1027.24 1026.20 1025.49 1025.40 1025.42 1025.38 1025.50 1025.70 1025.89 1026.22 1026.51 1026.81 1026.39 1025.68 1025.85 1025.59 1025.36 1025.25 1024.91 1024.72 1024.55 1024.14 1023.89 1023.58 1023.18 1023.01 1022.73 1022.39 1021.88 1021.43 1021.13 1020.63 1020.17 1019.68 1019.31 1018.75 1018.27 1017.91 1017.54 1017.17 1017.11
1026.96 1026.90 1026.66 1025.53 1025.74 1025.75 1025.76 1025.80 1025.83 1025.70 1025.78 1026.11 1026.63 1027.49 1027.33 1026.53 1026.07 1025.98 1025.87 1025.80 1025.69 1025.51 1025.44 1024.99 1024.32 1024.06 1023.78 1023.59 1023.35 1022.96 1022.41 1022.02 1021.74 1021.38 1020.72 1020.11 1019.78 1019.21 1018.86 1018.47 1018.07 1017.74 1017.67
1027.13 1026.43 1026.19 1026.07 1026.08 1026.16 1026.17 1026.02 1025.93 1025.82 1025.91 1026.03 1026.21 1026.79 1027.09 1026.51 1026.37 1026.28 1026.33 1026.36 1026.26 1026.15 1026.00 1025.67 1025.00 1024.75 1024.60 1024.44 1024.19 1023.61 1023.15 1022.84 1022.55 1022.08 1021.30 1020.62 1020.21 1019.90 1019.42 1018.99 1018.69 1018.28 1018.10
1026.85 1026.41 1026.19 1026.21 1026.30 1026.62 1026.17 1026.12 1026.13 1026.12 1026.16 1026.31 1026.39 1026.43 1026.58 1026.66 1026.67 1026.71 1026.71 1026.82 1026.75 1026.67 1026.50 1026.30 1025.90 1025.55 1025.52 1025.13 1024.78 1024.21 1024.08 1024.04 1023.52 1022.61 1021.87 1021.26 1020.79 1020.73 1020.02 1019.63 1019.22 1019.03 1018.84
1026.64 1026.46 1026.28 1026.23 1026.52 1026.15 1026.29 1026.35 1026.34 1026.85 1026.69 1026.47 1026.70 1026.76 1026.86 1026.92 1026.94 1027.01 1026.96 1027.09 1027.06 1026.98 1026.95 1026.76 1026.64 1026.52 1026.29 1025.94 1025.56 1025.12 1025.63 1025.77 1024.80 1023.58 1022.53 1021.89 1021.47 1021.11 1020.68 1020.32 1019.94 1019.67 1019.41
1026.66 1026.97 1026.49 1026.27 1026.31 1026.34 1026.31 1026.43 1026.48 1026.57 1026.65 1026.83 1026.92 1026.95 1026.99 1027.09 1027.06 1027.15 1027.24 1027.31 1027.32 1027.25 1027.25 1027.18 1027.18 1027.00 1026.74 1026.80 1026.90 1026.78 1027.05 1026.68 1025.68 1025.15 1023.04 1022.41 1022.09 1021.94 1021.35 1020.94 1020.72 1020.16 1020.05
1027.26 1026.88 1027.06 1026.17 1026.19 1026.27 1026.30 1026.34 1026.49 1026.65 1026.77 1026.94 1027.06 1027.16 1027.24 1027.23 1027.24 1027.24 1027.36 1027.58 1027.49 1027.45 1027.52 1027.43 1027.50 1027.41 1027.30 1027.26 1027.76 1027.85 1027.46 1026.86 1026.00 1025.35 1024.33 1022.87 1022.62 1022.55 1022.29 1021.61 1021.34 1020.80 1020.59
Thickness
5491 5485 5479 5472 5468 5466 5462 5458 5455 5455 5455 5455 5456 5457 5458 5460 5463 5463 5464 5466 5472 5477 5481 5485 5488 5489 5484 5479 5476 5475 5475 5478 5480 5477 5467 5469 5471 5471 5473 5474 5477 5481 5484
5484 5476 5469 5466 5461 5457 5453 5450 5447 5446 5447 5449 5450 5448 5449 5451 5457 5461 5465 5466 5471 5477 5484 5488 5489 5487 5482 5481 5482 5481 5480 5477 5470 5467 5468 5470 5470 5469 5470 5474 5479 5483 5485
5477 5471 5464 5455 5448 5449 5448 5447 5445 5443 5444 5447 5448 5451 5453 5455 5460 5464 5466 5468 5470 5473 5478 5483 5484 5482 5482 5483 5480 5483 5481 5473 5469 5467 5470 5472 5470 5470 5474 5479 5483 5485 5487
5477 5469 5460 5451 5446 5445 5448 5446 5446 5447 5443 5445 5451 5454 5456 5456 5456 5459 5465 5469 5472 5476 5477 5479 5481 5481 5479 5479 5481 5478 5476 5473 5473 5474 5476 5474 5474 5472 5475 5484 5488 5489 5491
5476 5470 5459 5451 5450 5451 5449 5448 5448 5449 5450 5453 5453 5455 5454 5454 5454 5459 5464 5468 5471 5475 5477 5480 5480 5473 5472 5473 5477 5476 5476 5477 5477 5478 5482 5485 5484 5483 5483 5487 5487 5490 5488
5478 5471 5462 5458 5459 5460 5460 5459 5457 5456 5458 5457 5458 5456 5456 5458 5454 5457 5461 5468 5471 5473 5476 5479 5478 5476 5474 5475 5476 5477 5477 5483 5485 5488 5492 5492 5487 5490 5488 5488 5489 5493 5492
5481 5479 5473 5470 5464 5463 5463 5461 5462 5462 5465 5465 5465 5465 5465 5465 5461 5463 5467 5472 5472 5473 5475 5476 5474 5476 5477 5478 5478 5479 5481 5482 5483 5490 5494 5493 5492 5489 5487 5489 5492 5491 5494
5483 5482 5479 5478 5472 5470 5468 5467 5467 5467 5466 5466 5467 5466 5467 5468 5468 5470 5472 5472 5472 5473 5474 5476 5478 5481 5482 5483 5486 5491 5492 5493 5491 5494 5495 5494 5492 5490 5490 5491 5491 5491 5495
5485 5484 5483 5482 5482 5476 5478 5476 5474 5474 5474 5474 5473 5473 5474 5474 5474 5476 5477 5477 5477 5478 5479 5480 5485 5489 5484 5487 5497 5501 5501 5500 5495 5494 5493 5492 5491 5490 5488 5492 5501 5501 5509
5487 5486 5487 5485 5484 5482 5485 5485 5483 5484 5484 5484 5482 5480 5479 5484 5481 5481 5484 5484 5485 5486 5489 5492 5489 5490 5490 5493 5503 5506 5508 5506 5506 5507 5507 5503 5499 5502 5497 5494 5501 5504 5508
5492 5491 5492 5491 5490 5491 5493 5491 5491 5489 5489 5489 5489 5492 5493 5492 5490 5489 5493 5500 5499 5505 5509 5508 5503 5497 5497 5498 5500 5507 5505 5502 5511 5514 5518 5518 5516 5517 5517 5512 5509 5506 5508
5497 5497 5496 5496 5498 5500 5499 5499 5500 5500 5502 5502 5503 5508 5507 5505 5499 5496 5497 5499 5503 5512 5513 5512 5508 5504 5505 5506 5508 5508 5509 5509 5523 5523 5528 5527 5526 5526 5524 5519 5515 5512 5509
5502 5502 5502 5503 5504 5505 5505 5505 5508 5509 5511 5513 5512 5510 5513 5513 5513 5509 5507 5508 5510 5518 5516 5513 5513 5515 5517 5520 5517 5518 5519 5528 5526 5531 5527 5531 5530 5530 5527 5527 5524 5522 5518
5508 5508 5507 5508 5508 5508 5509 5510 5511 5510 5513 5516 5518 5518 5523 5521 5516 5517 5525 5525 5521 5525 5524 5527 5527 5527 5528 5529 5532 5532 5533 5532 5531 5534 5534 5532 5531 5533 5530 5525 5526 5526 5526
5510 5510 5510 5512 5513 5512 5511 5510 5513 5504 5506 5516 5519 5519 5521 5520 5512 5508 5513 5521 5524 5526 5527 5537 5538 5538 5538 5538 5538 5537 5537 5536 5535 5535 5536 5536 5535 5532 5529 5527 5525 5524 5522
5512 5515 5512 5514 5519 5521 5519 5514 5506 5507 5507 5508 5509 5513 5519 5511 5513 5516 5519 5523 5527 5531 5539 5540 5539 5539 5539 5538 5538 5539 5538 5535 5535 5536 5534 5533 5530 5529 5525 5526 5523 5519 5518
5512 5513 5519 5519 5526 5529 5530 5531 5532 5513 5512 5515 5514 5514 5514 5516 5520 5522 5525 5528 5533 5539 5541 5541 5540 5540 5539 5538 5538 5537 5536 5533 5533 5534 5532 5530 5528 5528 5525 5523 5521 5515 5512
5517 5513 5525 5528 5529 5533 5536 5537 5536 5534 5533 5532 5522 5522 5521 5523 5525 5529 5534 5539 5542 5542 5543 5541 5540 5539 5538 5537 5536 5534 5533 5531 5530 5530 5529 5527 5524 5523 5521 5518 5516 5508 5503
5526 5525 5527 5531 5535 5534 5539 5539 5539 5537 5537 5537 5536 5534 5532 5531 5533 5535 5538 5543 5542 5542 5541 5541 5539 5538 5537 5537 5534 5532 5529 5528 5526 5527 5525 5523 5521 5520 5517 5514 5510 5501 5495
5528 5522 5525 5535 5541 5542 5542 5542 5542 5541 5541 5539 5537 5534 5536 5543 5543 5543 5541 5540 5541 5540 5539 5539 5538 5538 5538 5535 5533 5531 5530 5529 5526 5524 5522 5520 5517 5515 5512 5508 5504 5499 5492
5531 5531 5532 5543 5541 5542 5543 5542 5543 5545 5545 5543 5539 5531 5529 5541 5543 5542 5541 5539 5538 5537 5535 5536 5538 5536 5535 5533 5530 5528 5528 5525 5522 5518 5518 5517 5513 5511 5508 5504 5499 5493 5486
5531 5537 5539 5540 5541 5541 5542 5545 5546 5547 5547 5547 5546 5541 5537 5543 5543 5542 5540 5537 5536 5534 5533 5532 5534 5532 5530 5527 5524 5523 5522 5519 5515 5513 5513 5512 5509 5505 5502 5498 5493 5488 5482
5535 5538 5540 5541 5541 5537 5544 5546 5547 5548 5548 5547 5547 5547 5545 5543 5542 5540 5538 5535 5534 5532 5530 5529 5528 5527 5523 5522 5519 5518 5514 5510 5507 5508 5508 5507 5504 5497 5496 5491 5487 5480 5475
5538 5539 5540 5541 5540 5545 5544 5545 5546 5541 5544 5547 5545 5545 5544 5542 5540 5538 5536 5534 5532 5530 5527 5526 5523 5520 5518 5516 5514 5511 5503 5498 5498 5500 5501 5500 5497 5492 5488 5483 5478 5472 5467
5537 5534 5539 5542 5542 5543 5544 5544 5545 5545 5545 5544 5543 5543 5542 5541 5539 5536 5534 5531 5529 5527 5525 5522 5519 5516 5514 5509 5504 5500 5497 5495 5493 5492 5496 5493 5489 5483 5480 5476 5469 5466 5460
5529 5534 5534 5543 5543 5543 5544 5544 5544 5543 5543 5543 5542 5541 5540 5539 5537 5535 5532 5529 5527 5525 5521 5519 5515 5512 5508 5504 5498 5495 5493 5491 5489 5488 5486 5487 5481 5475 5469 5467 5462 5459 5453